{"data":{"norad_id":54167,"epoch":"2026-05-24T22:53:24.604800Z","epoch_age_seconds":79125,"freshness":"FRESH","line1":"1 54167U 22141L   26144.95375700  .00000799  00000+0  68264-4 0  9990","line2":"2 54167  53.2167  31.5374 0001333  95.7246 264.3898 15.08841548197231","mean_motion":15.08841548,"eccentricity":0.0001333,"inclination_deg":53.2167,"raan_deg":31.5374,"arg_perigee_deg":95.7246,"mean_anomaly_deg":264.3898,"bstar":6.8264e-5,"rev_number":19723,"period_min":95.437456763353,"perigee_km":538.81650452631,"apogee_km":540.66081017656,"semimajor_km":6917.8756573514,"source":"CELESTRAK","updated_at":"2026-05-25T13:38:17.661294Z"}}